Wind_Speed
29 28 28 28 28 28 29 28 27 28 28 27 26 26 26 27 27 27 27 27 27 26 27 26 25 25 26 26 26 27 27 26 27 27 27 27 29 29 29 28 28 29 30
30 29 29 29 29 29 29 30 29 28 29 29 28 27 27 29 29 29 28 27 27 26 26 25 25 25 26 27 27 28 28 28 28 28 28 28 29 30 30 30 30 31 31
27 28 29 29 30 30 30 29 27 28 27 27 27 27 29 29 29 29 29 28 26 26 26 26 26 26 26 28 28 30 30 29 29 30 31 31 30 30 30 31 32 33 34
26 28 29 29 30 30 29 27 26 27 27 27 27 28 29 29 28 28 29 29 28 27 27 27 28 27 27 28 29 30 31 31 32 33 33 33 33 32 32 33 34 35 37
27 28 28 29 29 29 28 28 28 28 27 27 26 25 26 27 27 28 30 30 29 28 27 27 27 28 29 30 31 32 32 32 33 33 34 35 34 35 36 37 38 38 39
27 27 28 28 29 29 29 29 28 27 26 25 26 25 26 27 27 29 30 30 30 29 29 29 30 30 31 31 32 33 34 34 33 34 35 35 36 38 39 40 40 40 41
27 28 28 29 30 30 29 29 28 28 28 26 26 26 27 27 27 28 28 29 30 31 31 31 31 32 32 33 34 34 35 36 36 36 36 37 39 40 41 41 42 43 44
26 27 28 29 29 30 29 29 29 29 29 27 27 27 27 28 28 28 28 29 30 32 32 32 33 34 34 34 34 36 37 36 36 37 37 39 39 40 41 41 42 44 45
26 27 28 28 28 28 29 29 29 29 29 28 28 28 28 27 28 28 28 30 30 31 32 33 34 35 35 36 37 37 37 37 37 38 38 39 40 41 42 43 43 44 45
25 27 28 29 30 30 30 30 30 28 27 27 27 27 28 29 29 30 30 31 32 33 33 34 34 35 36 37 37 37 37 37 38 39 39 40 42 43 43 43 44 44 45
24 25 26 27 28 29 29 29 29 28 27 27 28 28 28 29 30 30 31 32 33 34 35 35 35 35 36 36 36 36 36 37 38 39 40 41 42 42 42 43 43 44 44
22 23 24 25 26 26 26 27 27 27 28 28 28 29 29 29 29 30 31 32 33 33 33 34 34 35 36 36 36 37 37 37 38 39 39 40 40 41 41 41 41 42 42
20 21 22 22 22 23 24 24 24 24 25 26 27 28 28 28 29 30 30 31 32 33 33 33 34 34 35 35 36 36 36 37 37 38 38 38 38 38 38 38 39 39 39
19 19 19 20 21 21 21 23 23 23 23 24 25 26 26 27 27 28 29 30 31 32 32 32 33 33 34 34 34 35 35 36 36 36 36 35 35 35 36 37 37 36 37
20 20 19 19 19 19 19 20 21 21 21 22 23 24 25 26 27 27 28 29 29 30 30 31 31 31 31 32 33 33 33 33 33 32 33 33 34 34 34 35 35 35 34
19 18 18 17 17 18 18 19 19 19 20 21 22 23 23 24 25 26 26 27 27 27 28 28 28 29 29 30 31 30 30 30 30 31 31 32 32 32 33 33 33 33 31
17 17 17 17 18 17 17 17 18 20 20 20 21 22 22 22 23 23 24 24 25 25 26 26 27 27 28 28 27 27 27 27 27 28 29 30 30 30 29 30 29 29 29
16 16 17 17 17 17 17 17 17 17 18 18 19 19 20 20 21 22 23 23 23 24 24 24 24 24 25 25 25 25 25 25 26 25 25 25 25 25 25 25 25 26 25
16 15 16 17 17 16 16 16 16 16 17 17 17 17 18 18 19 20 21 21 21 21 21 22 22 23 23 23 23 23 23 23 23 23 22 22 22 22 22 22 22 22 21
14 14 14 15 15 15 16 16 15 15 15 16 16 17 17 17 18 18 19 19 19 19 19 20 19 20 20 20 20 20 20 20 20 20 20 20 20 20 20 20 20 19 19
13 13 13 13 13 13 14 14 14 14 14 15 15 15 15 16 17 17 18 17 17 17 18 18 18 18 18 18 18 17 17 17 17 18 18 18 18 18 18 18 17 17 16
12 12 12 11 12 12 12 12 12 12 12 13 13 14 14 15 15 15 15 16 16 16 16 16 16 15 15 15 15 15 15 15 16 16 16 16 16 16 16 16 15 14 13
11 11 11 11 11 10 10 10 10 10 11 11 11 12 13 13 14 14 14 14 14 14 13 13 13 14 14 14 14 14 14 14 14 15 15 15 15 15 14 13 12 12 11
10 10 10 10 9 8 8 9 9 9 9 10 10 11 11 12 12 12 12 12 12 12 12 12 12 12 12 12 12 12 12 12 12 12 12 12 12 12 12 11 11 11 10
8 8 7 6 6 6 7 7 7 8 8 9 9 10 10 10 11 11 11 11 11 11 10 10 10 10 10 10 10 9 10 10 11 11 11 11 11 11 11 10 10 9 8
8 7 6 5 5 5 5 6 6 6 7 7 8 8 9 9 10 10 10 10 10 9 9 8 8 8 8 8 8 8 9 10 10 11 11 11 10 10 10 9 8 8 7
Wind_Direction
252 255 259 262 265 267 270 270 271 273 269 266 260 258 255 250 245 245 247 245 246 249 247 246 248 249 250 253 256 259 262 263 265 267 268 271 271 272 272 273 275 275 276
252 255 259 262 264 266 268 268 269 269 267 264 259 256 252 252 249 246 248 250 251 251 250 251 252 251 254 256 257 261 264 266 269 270 271 273 273 273 273 274 275 276 277
252 255 259 261 263 265 268 269 266 266 263 260 256 255 253 250 252 251 250 251 253 255 256 256 257 256 258 260 262 265 270 271 272 272 272 272 274 275 275 276 276 278 280
253 256 259 261 261 263 264 267 269 268 265 262 257 257 253 248 252 251 250 251 253 256 259 260 261 260 261 264 266 268 270 272 274 276 275 274 275 276 278 278 279 280 281
255 258 259 260 262 263 266 270 274 272 271 267 262 260 253 251 250 249 251 253 255 259 263 265 264 263 264 266 267 269 272 274 276 276 275 276 278 278 280 280 280 281 280
258 258 259 261 263 266 269 272 272 271 273 268 262 261 258 256 254 252 255 258 261 261 263 265 265 266 267 270 270 271 272 274 275 276 277 278 280 280 281 281 280 280 280
261 261 262 263 266 269 269 270 269 268 269 268 268 267 267 265 259 258 260 262 264 265 268 269 269 269 270 273 274 273 275 275 276 277 278 279 280 280 280 280 280 280 280
264 263 263 265 268 269 269 268 268 266 266 267 268 269 268 266 265 264 264 265 266 267 268 269 271 272 272 275 275 275 277 279 278 279 280 280 281 280 280 280 280 281 282
268 268 268 268 269 271 268 268 268 266 266 266 268 269 267 264 265 265 266 266 268 269 268 269 272 273 274 275 277 278 279 281 282 282 282 281 281 282 282 282 281 282 282
271 273 273 272 272 272 268 268 270 268 265 265 267 266 264 263 265 265 266 268 270 271 271 272 273 274 276 278 279 279 280 281 282 283 283 282 282 282 282 282 282 282 283
275 275 276 274 274 273 271 269 267 267 266 265 265 264 265 264 265 267 268 268 269 271 272 273 274 276 277 278 279 280 281 282 283 283 284 284 284 283 284 284 283 284 284
282 280 279 277 276 275 272 269 267 265 264 265 265 266 267 268 269 269 270 271 271 272 274 275 276 278 279 279 280 281 283 283 284 284 285 286 286 286 286 286 285 285 285
286 282 281 279 277 274 270 269 268 266 265 266 266 268 268 268 269 270 272 273 274 275 277 277 278 279 280 280 281 282 283 283 285 286 286 287 287 287 288 288 288 287 288
287 285 283 280 275 272 271 268 267 267 267 267 268 268 268 270 270 271 272 273 275 276 277 278 279 280 281 281 282 283 283 284 286 287 287 288 288 289 289 289 289 289 289
289 288 288 283 275 273 271 266 264 266 270 271 270 270 271 272 272 274 275 276 277 279 280 280 280 280 281 281 282 283 284 286 287 288 288 289 290 290 290 291 291 290 290
287 285 285 282 274 270 269 267 266 269 272 272 271 272 272 274 274 276 277 278 279 280 282 282 281 282 283 283 283 284 286 288 289 290 291 291 291 292 292 293 292 291 290
289 287 283 281 279 278 275 274 275 274 273 274 273 273 274 275 276 277 279 279 280 281 282 283 284 284 284 283 284 286 289 291 292 293 293 293 292 293 294 294 293 292 292
291 289 285 279 279 281 277 273 274 273 274 276 276 276 277 278 279 281 283 284 283 282 283 285 287 288 288 287 289 290 291 292 294 296 296 295 295 296 297 297 297 297 296
291 288 285 281 278 279 279 276 274 275 277 278 279 280 281 283 285 285 285 285 285 286 287 288 289 290 289 289 290 292 294 295 296 298 298 298 299 301 302 302 302 302 302
292 287 284 282 280 277 277 276 274 276 277 280 281 280 281 283 287 289 289 288 289 290 291 291 291 293 293 293 293 294 296 298 299 300 300 301 302 303 304 305 306 307 308
292 287 285 283 279 276 275 275 276 277 277 280 282 282 285 287 291 293 292 291 292 293 293 292 293 294 296 296 296 297 300 302 303 304 304 306 307 308 309 309 310 312 313
295 290 288 285 280 279 277 276 278 280 281 283 285 287 290 292 295 296 297 297 296 296 295 296 297 299 300 300 300 301 304 306 306 308 309 310 313 315 315 315 315 315 316
302 297 293 288 281 278 278 278 279 282 283 285 288 292 296 298 299 300 301 302 301 300 301 301 303 305 305 305 305 305 307 308 310 312 314 316 317 320 322 322 322 322 322
311 305 299 292 283 279 280 280 282 287 290 291 296 300 304 305 305 306 306 307 307 307 307 308 310 311 313 312 311 311 311 314 316 318 320 321 323 326 328 328 327 327 327
328 321 313 302 290 284 285 287 290 293 295 299 305 308 311 313 314 315 316 317 317 318 318 317 318 321 322 322 322 322 323 324 326 326 327 328 328 328 328 328 329 330 332
350 344 336 324 310 305 305 303 301 302 306 310 316 320 323 325 327 328 329 330 330 331 332 332 332 332 333 335 335 333 332 331 330 331 330 330 330 330 331 331 332 335 340
Height
5819 5821 5823 5824 5825 5825 5825 5824 5824 5825 5825 5826 5826 5828 5829 5829 5831 5832 5833 5833 5835 5836 5837 5838 5838 5839 5839 5840 5840 5840 5840 5841 5840 5840 5839 5839 5838 5838 5837 5836 5835 5835 5834
5814 5815 5817 5818 5819 5819 5819 5818 5818 5818 5818 5819 5820 5821 5822 5823 5825 5826 5826 5827 5829 5830 5831 5831 5832 5832 5833 5833 5834 5834 5834 5834 5834 5833 5833 5832 5832 5831 5830 5829 5828 5827 5827
5808 5809 5810 5812 5812 5813 5813 5813 5812 5811 5811 5812 5813 5814 5815 5816 5818 5819 5820 5822 5823 5824 5825 5825 5825 5826 5827 5827 5827 5827 5827 5827 5827 5826 5825 5825 5824 5823 5823 5821 5821 5820 5818
5801 5803 5804 5805 5806 5806 5806 5806 5807 5806 5805 5805 5806 5807 5807 5808 5810 5811 5813 5815 5816 5817 5818 5818 5819 5819 5820 5820 5820 5820 5820 5820 5819 5818 5817 5817 5816 5815 5815 5814 5812 5811 5809
5795 5796 5797 5798 5799 5799 5800 5800 5800 5799 5798 5798 5799 5800 5801 5801 5802 5803 5805 5807 5809 5810 5811 5811 5811 5812 5813 5813 5813 5812 5812 5811 5811 5810 5809 5808 5807 5806 5806 5805 5804 5802 5800
5790 5790 5791 5791 5792 5793 5793 5793 5793 5792 5792 5792 5793 5794 5794 5795 5796 5797 5798 5800 5801 5802 5803 5803 5804 5804 5804 5805 5804 5804 5804 5803 5802 5802 5801 5800 5799 5797 5796 5795 5793 5791 5790
5784 5785 5785 5786 5786 5786 5786 5786 5786 5786 5786 5786 5787 5787 5788 5788 5789 5790 5791 5792 5793 5794 5795 5795 5796 5796 5796 5796 5796 5795 5795 5794 5794 5793 5792 5791 5789 5788 5786 5784 5783 5781 5779
5778 5778 5779 5779 5779 5779 5779 5779 5779 5779 5779 5779 5780 5780 5781 5782 5782 5782 5783 5785 5785 5786 5786 5787 5787 5787 5787 5787 5787 5786 5786 5785 5784 5783 5782 5781 5779 5777 5775 5773 5772 5770 5768
5772 5772 5772 5773 5772 5772 5771 5771 5772 5771 5772 5772 5773 5773 5773 5774 5775 5775 5776 5776 5777 5777 5778 5778 5778 5778 5778 5777 5777 5776 5775 5774 5774 5772 5771 5770 5768 5766 5764 5762 5760 5759 5756
5766 5766 5766 5765 5765 5765 5764 5764 5764 5764 5764 5765 5765 5766 5766 5767 5767 5767 5767 5768 5768 5769 5769 5769 5769 5769 5768 5767 5767 5766 5765 5764 5763 5762 5760 5759 5757 5755 5753 5751 5749 5746 5744
5760 5759 5758 5758 5757 5757 5757 5756 5757 5757 5757 5757 5758 5758 5758 5758 5759 5759 5759 5760 5760 5760 5760 5760 5759 5759 5758 5757 5757 5756 5755 5753 5752 5751 5749 5747 5745 5743 5741 5739 5736 5734 5732
5753 5753 5752 5751 5750 5749 5749 5749 5748 5749 5749 5749 5750 5750 5750 5751 5751 5751 5751 5751 5751 5751 5751 5750 5750 5749 5749 5748 5747 5746 5744 5743 5741 5740 5738 5736 5734 5732 5729 5727 5724 5722 5720
5747 5746 5745 5744 5743 5742 5741 5741 5741 5741 5741 5741 5742 5742 5743 5743 5743 5743 5743 5743 5743 5742 5742 5741 5741 5740 5739 5738 5737 5735 5734 5733 5731 5729 5727 5725 5723 5721 5718 5716 5713 5710 5708
5741 5740 5738 5737 5736 5735 5735 5734 5734 5734 5734 5735 5735 5735 5735 5735 5735 5735 5735 5735 5734 5734 5733 5732 5731 5730 5729 5728 5727 5726 5724 5722 5721 5719 5717 5715 5712 5710 5708 5705 5702 5700 5697
5734 5733 5732 5730 5729 5729 5728 5728 5728 5728 5728 5728 5728 5728 5728 5728 5728 5727 5727 5727 5726 5725 5724 5723 5722 5721 5720 5719 5718 5717 5715 5713 5711 5709 5707 5705 5703 5700 5698 5695 5693 5690 5687
5728 5727 5725 5724 5723 5723 5722 5722 5722 5722 5722 5722 5722 5721 5721 5721 5721 5720 5719 5719 5718 5717 5716 5715 5714 5712 5711 5710 5709 5708 5706 5704 5703 5700 5698 5696 5693 5691 5688 5686 5683 5681 5678
5723 5721 5720 5719 5718 5717 5716 5716 5716 5716 5716 5716 5716 5715 5715 5714 5714 5713 5713 5712 5711 5710 5709 5707 5706 5705 5703 5702 5701 5700 5698 5696 5694 5692 5690 5687 5685 5682 5679 5677 5674 5672 5670
5717 5716 5714 5713 5713 5712 5711 5711 5710 5710 5710 5710 5709 5709 5709 5708 5707 5707 5706 5705 5704 5703 5701 5700 5699 5697 5696 5695 5694 5692 5691 5689 5687 5684 5682 5680 5678 5675 5672 5670 5667 5665 5662
5712 5710 5709 5708 5707 5706 5706 5705 5705 5705 5704 5704 5703 5703 5702 5702 5701 5700 5699 5698 5697 5696 5694 5693 5692 5691 5689 5688 5687 5685 5683 5682 5680 5678 5676 5674 5671 5669 5666 5664 5661 5659 5656
5707 5706 5704 5703 5702 5701 5701 5700 5700 5700 5699 5699 5699 5698 5697 5696 5695 5694 5693 5692 5691 5689 5688 5687 5686 5685 5683 5682 5680 5679 5677 5676 5674 5672 5670 5668 5666 5663 5661 5658 5656 5654 5651
5702 5701 5700 5698 5698 5697 5697 5696 5696 5695 5695 5695 5694 5693 5693 5692 5691 5690 5688 5687 5686 5684 5683 5682 5681 5679 5678 5676 5675 5673 5672 5670 5668 5667 5665 5663 5660 5658 5656 5653 5651 5649 5647
5698 5697 5696 5694 5694 5693 5693 5692 5692 5691 5691 5691 5690 5689 5689 5688 5687 5685 5684 5683 5681 5680 5679 5677 5676 5674 5673 5672 5670 5669 5667 5666 5664 5662 5660 5658 5656 5654 5651 5649 5647 5646 5644
5695 5693 5692 5691 5690 5690 5689 5689 5689 5688 5688 5687 5687 5686 5685 5684 5683 5682 5680 5679 5677 5676 5674 5673 5672 5670 5669 5667 5666 5665 5663 5661 5660 5658 5656 5654 5652 5650 5648 5646 5644 5643 5641
5692 5690 5689 5688 5688 5687 5687 5686 5686 5685 5685 5684 5684 5683 5682 5681 5680 5678 5677 5675 5674 5672 5671 5670 5668 5667 5665 5664 5663 5661 5660 5658 5657 5655 5653 5651 5649 5647 5646 5644 5642 5641 5639
5690 5688 5687 5686 5686 5685 5685 5684 5684 5683 5682 5682 5681 5680 5679 5678 5677 5676 5674 5673 5671 5670 5668 5667 5666 5664 5663 5661 5660 5658 5657 5655 5654 5652 5651 5649 5647 5645 5644 5642 5641 5639 5638
5689 5687 5686 5685 5684 5684 5683 5682 5682 5681 5681 5680 5680 5679 5678 5676 5675 5674 5672 5670 5669 5668 5666 5665 5664 5662 5661 5659 5658 5657 5655 5653 5652 5650 5649 5647 5645 5644 5642 5640 5639 5638 5637